NORTHEAST SUFFOLK  -  Winter Weather Advisory Winter Weather Advisory     Winter Weather Advisory Winter Weather Advisory        NORTHERN NASSAU  -  Winter Weather Advisory Winter Weather Advisory        NORTHWEST SUFFOLK  -  Winter Weather Advisory Winter Weather Advisory     Winter Weather Advisory Winter Weather Advisory        SOUTHEAST SUFFOLK  -  Winter Weather Advisory Winter Weather Advisory     Winter Weather Advisory Winter Weather Advisory        SOUTHERN NASSAU  -  Winter Weather Advisory Winter Weather Advisory        SOUTHWEST SUFFOLK  -  Winter Weather Advisory Winter Weather Advisory     Winter Weather Advisory Winter Weather Advisory      

Active alerts

Northern Nassau
  Details for Northern Nassau Winter Weather Advisory
Southern Nassau
  Details for Southern Nassau Winter Weather Advisory
Northwest Suffolk
  Details for Northwest Suffolk Winter Weather Advisory  +1 additional alert
Southwest Suffolk
  Details for Southwest Suffolk Winter Weather Advisory  +1 additional alert
Northeast Suffolk
  Details for Northeast Suffolk Winter Weather Advisory  +1 additional alert
Southeast Suffolk
  Details for Southeast Suffolk Winter Weather Advisory  +1 additional alert


WXM80 ListenWXM80 Stop

You find our weather info also at:

UK Metoffice

WeatherCloud

Weather Underground

Northeastern Weather Network

AWEKAS

Citizen Weather Observer Program (CWOP)

HAMweather, WeatherForYou, PWS Weather


Weather Underground History page Text

Daily Summary for February 17, 2017 Units:  English    Metric   Both
« Previous Day
Next Day »
Daily Weekly Monthly Yearly Custom
  High: Low: Average:
Temperature: 40.7 °F 27.6 °F 34.1 °F
Dew Point: 25.2 °F 18.4 °F 21.5 °F
Humidity: 72 % 46 % 60 %
Wind Speed: 10.1 mph 0.0 mph 4.7 mph
Wind Gust: 19.6 mph - -
Wind:- - West
Pressure: 29.88 in 29.74 in -
Precipitation: 0.00 in    
Historical Graphs
 
 
Tabular Data for February 17, 2017
Time Temperature Dew Point Pressure Wind Wind Speed Wind Gust Humidity Rainfall Rate (Hourly)
00:03 28.3 °F 19.1 °F 29.75 in WNW 5.0 mph 18.0 mph 68 % 0.00 in
00:08 28.3 °F 19.1 °F 29.75 in WNW 5.0 mph 12.0 mph 68 % 0.00 in
00:13 28.3 °F 18.7 °F 29.75 in WNW 5.0 mph 14.0 mph 67 % 0.00 in
00:18 28.3 °F 19.1 °F 29.75 in WNW 7.0 mph 13.0 mph 68 % 0.00 in
00:23 28.3 °F 18.4 °F 29.75 in WNW 6.0 mph 14.0 mph 66 % 0.00 in
00:28 28.3 °F 18.4 °F 29.75 in WNW 3.0 mph 10.0 mph 66 % 0.00 in
00:33 28.3 °F 18.7 °F 29.75 in WNW 7.0 mph 12.0 mph 67 % 0.00 in
00:38 28.3 °F 19.1 °F 29.75 in WNW 6.0 mph 13.0 mph 68 % 0.00 in
00:43 28.3 °F 19.1 °F 29.74 in WNW 7.0 mph 12.0 mph 68 % 0.00 in
00:48 28.3 °F 19.1 °F 29.75 in NW 6.3 mph 11.0 mph 68 % 0.00 in
00:53 28.4 °F 18.8 °F 29.75 in NNW 4.7 mph 9.2 mph 67 % 0.00 in
00:58 28.4 °F 19.2 °F 29.75 in West 5.8 mph 9.2 mph 68 % 0.00 in
01:03 28.4 °F 18.8 °F 29.75 in WNW 3.1 mph 11.5 mph 67 % 0.00 in
01:08 28.4 °F 18.8 °F 29.75 in NW 6.8 mph 13.8 mph 67 % 0.00 in
01:13 28.4 °F 18.8 °F 29.75 in West 7.7 mph 12.7 mph 67 % 0.00 in
01:19 28.4 °F 19.2 °F 29.75 in WSW 6.9 mph 11.5 mph 68 % 0.00 in
01:24 28.4 °F 19.2 °F 29.75 in NW 9.0 mph 14.0 mph 68 % 0.00 in
01:29 28.4 °F 19.2 °F 29.75 in West 9.8 mph 14.0 mph 68 % 0.00 in
01:34 28.4 °F 19.2 °F 29.75 in WNW 5.4 mph 11.5 mph 68 % 0.00 in
01:39 28.4 °F 19.2 °F 29.75 in West 10.1 mph 16.1 mph 68 % 0.00 in
01:44 28.4 °F 19.2 °F 29.75 in WNW 5.4 mph 11.5 mph 68 % 0.00 in
01:49 28.4 °F 19.5 °F 29.75 in NW 6.3 mph 8.1 mph 69 % 0.00 in
01:54 28.3 °F 19.4 °F 29.75 in NW 4.6 mph 10.4 mph 69 % 0.00 in
01:59 28.3 °F 19.4 °F 29.75 in WNW 7.2 mph 11.0 mph 69 % 0.00 in
02:04 28.3 °F 19.4 °F 29.76 in WNW 4.9 mph 7.0 mph 69 % 0.00 in
02:09 28.3 °F 19.4 °F 29.75 in NNW 3.8 mph 10.4 mph 69 % 0.00 in
02:14 28.2 °F 19.3 °F 29.75 in WNW 5.0 mph 8.1 mph 69 % 0.00 in
02:19 28.2 °F 19.3 °F 29.75 in West 4.3 mph 13.8 mph 69 % 0.00 in
02:24 28.1 °F 19.2 °F 29.76 in West 5.3 mph 12.7 mph 69 % 0.00 in
02:29 28.1 °F 19.6 °F 29.76 in WSW 4.3 mph 10.4 mph 70 % 0.00 in
02:35 28.0 °F 19.1 °F 29.76 in WSW 4.0 mph 10.4 mph 69 % 0.00 in
02:40 28.0 °F 19.1 °F 29.76 in West 6.6 mph 10.4 mph 69 % 0.00 in
02:45 28.0 °F 19.1 °F 29.76 in WNW 6.4 mph 12.7 mph 69 % 0.00 in
02:50 28.0 °F 19.5 °F 29.76 in WSW 9.2 mph 17.3 mph 70 % 0.00 in
02:55 28.0 °F 19.1 °F 29.76 in West 8.5 mph 13.8 mph 69 % 0.00 in
03:00 28.0 °F 19.1 °F 29.76 in West 7.6 mph 16.1 mph 69 % 0.00 in
03:05 28.0 °F 19.5 °F 29.76 in WNW 3.4 mph 10.4 mph 70 % 0.00 in
03:10 28.0 °F 19.5 °F 29.75 in NW 3.9 mph 5.0 mph 70 % 0.00 in
03:15 27.9 °F 19.4 °F 29.76 in WNW 5.8 mph 11.0 mph 70 % 0.00 in
03:20 27.9 °F 19.4 °F 29.75 in West 3.5 mph 6.9 mph 70 % 0.00 in
03:25 27.9 °F 19.4 °F 29.76 in NW 7.3 mph 13.8 mph 70 % 0.00 in
03:30 27.9 °F 19.7 °F 29.76 in WNW 3.6 mph 6.0 mph 71 % 0.00 in
03:35 27.8 °F 19.3 °F 29.76 in West 6.4 mph 10.4 mph 70 % 0.00 in
03:41 27.8 °F 19.3 °F 29.76 in West 4.8 mph 9.2 mph 70 % 0.00 in
03:46 27.8 °F 19.3 °F 29.76 in West 4.1 mph 10.4 mph 70 % 0.00 in
03:51 27.8 °F 19.3 °F 29.76 in SW 5.0 mph 11.5 mph 70 % 0.00 in
03:56 27.8 °F 19.3 °F 29.76 in WSW 6.7 mph 10.4 mph 70 % 0.00 in
04:01 27.8 °F 19.3 °F 29.76 in WNW 4.9 mph 8.0 mph 70 % 0.00 in
04:06 27.8 °F 19.6 °F 29.77 in WNW 3.1 mph 5.8 mph 71 % 0.00 in
04:11 27.7 °F 19.5 °F 29.77 in WSW 5.0 mph 10.4 mph 71 % 0.00 in
04:16 27.8 °F 19.6 °F 29.76 in West 5.7 mph 12.0 mph 71 % 0.00 in
04:21 27.8 °F 19.6 °F 29.77 in WNW 4.9 mph 8.0 mph 71 % 0.00 in
04:26 27.7 °F 19.5 °F 29.77 in WSW 6.5 mph 10.4 mph 71 % 0.00 in
04:31 27.7 °F 19.5 °F 29.77 in WNW 6.6 mph 11.5 mph 71 % 0.00 in
04:36 27.7 °F 19.5 °F 29.76 in WNW 5.3 mph 8.1 mph 71 % 0.00 in
04:42 27.7 °F 19.5 °F 29.77 in WNW 3.5 mph 8.1 mph 71 % 0.00 in
04:47 27.7 °F 19.5 °F 29.77 in West 6.8 mph 9.2 mph 71 % 0.00 in
04:52 27.7 °F 19.5 °F 29.77 in WNW 8.9 mph 15.0 mph 71 % 0.00 in
04:57 27.7 °F 19.5 °F 29.77 in West 6.5 mph 12.7 mph 71 % 0.00 in
05:02 27.7 °F 19.5 °F 29.77 in WNW 5.4 mph 16.1 mph 71 % 0.00 in
05:07 27.8 °F 19.3 °F 29.77 in West 8.5 mph 13.8 mph 70 % 0.00 in
05:12 27.8 °F 19.3 °F 29.77 in West 3.5 mph 10.4 mph 70 % 0.00 in
05:17 27.8 °F 19.3 °F 29.77 in West 6.3 mph 11.5 mph 70 % 0.00 in
05:22 27.8 °F 19.3 °F 29.78 in WSW 4.9 mph 19.6 mph 70 % 0.00 in
05:27 27.8 °F 19.3 °F 29.78 in WSW 4.1 mph 9.0 mph 70 % 0.00 in
05:32 27.8 °F 19.6 °F 29.78 in West 7.2 mph 11.5 mph 71 % 0.00 in
05:37 27.8 °F 19.6 °F 29.78 in West 5.6 mph 11.5 mph 71 % 0.00 in
05:42 27.8 °F 19.6 °F 29.78 in WNW 5.2 mph 13.0 mph 71 % 0.00 in
05:47 27.8 °F 19.6 °F 29.78 in WSW 7.3 mph 12.0 mph 71 % 0.00 in
05:52 27.8 °F 19.6 °F 29.78 in West 6.5 mph 11.5 mph 71 % 0.00 in
05:58 27.8 °F 19.6 °F 29.78 in West 6.2 mph 11.5 mph 71 % 0.00 in
06:03 27.8 °F 19.3 °F 29.78 in West 3.5 mph 6.9 mph 70 % 0.00 in
06:08 27.8 °F 19.6 °F 29.78 in West 7.3 mph 13.8 mph 71 % 0.00 in
06:13 27.8 °F 19.6 °F 29.78 in WNW 7.0 mph 9.2 mph 71 % 0.00 in
06:18 27.7 °F 19.5 °F 29.78 in West 5.7 mph 11.5 mph 71 % 0.00 in
06:23 27.7 °F 19.5 °F 29.79 in SW 8.9 mph 16.0 mph 71 % 0.00 in
06:28 27.6 °F 19.4 °F 29.78 in WSW 9.4 mph 13.8 mph 71 % 0.00 in
06:33 27.7 °F 19.2 °F 29.78 in West 6.7 mph 12.0 mph 70 % 0.00 in
06:38 27.6 °F 19.4 °F 29.78 in West 9.4 mph 17.3 mph 71 % 0.00 in
06:43 27.6 °F 19.4 °F 29.78 in West 6.0 mph 16.0 mph 71 % 0.00 in
06:48 27.6 °F 19.4 °F 29.78 in WNW 8.0 mph 15.0 mph 71 % 0.00 in
06:53 27.6 °F 19.8 °F 29.79 in West 6.0 mph 12.0 mph 72 % 0.00 in
06:58 27.6 °F 19.4 °F 29.79 in West 5.6 mph 13.8 mph 71 % 0.00 in
07:03 27.7 °F 19.5 °F 29.79 in WSW 6.4 mph 13.8 mph 71 % 0.00 in
07:08 27.8 °F 19.3 °F 29.79 in West 7.9 mph 15.0 mph 70 % 0.00 in
07:13 27.8 °F 19.3 °F 29.79 in West 6.4 mph 9.2 mph 70 % 0.00 in
07:18 27.9 °F 19.7 °F 29.79 in West 4.5 mph 9.2 mph 71 % 0.00 in
07:24 27.9 °F 19.4 °F 29.80 in NNW 6.5 mph 12.7 mph 70 % 0.00 in
07:29 28.0 °F 19.5 °F 29.80 in West 7.6 mph 16.1 mph 70 % 0.00 in
07:34 28.1 °F 19.6 °F 29.80 in West 5.1 mph 13.8 mph 70 % 0.00 in
07:39 28.2 °F 19.7 °F 29.80 in WNW 6.6 mph 11.5 mph 70 % 0.00 in
07:44 28.3 °F 19.8 °F 29.81 in WSW 6.4 mph 10.4 mph 70 % 0.00 in
07:49 28.3 °F 19.8 °F 29.81 in West 7.1 mph 10.0 mph 70 % 0.00 in
07:54 28.4 °F 19.9 °F 29.81 in WNW 6.8 mph 14.0 mph 70 % 0.00 in
07:59 28.5 °F 20.0 °F 29.81 in West 8.0 mph 11.5 mph 70 % 0.00 in
08:04 28.5 °F 20.0 °F 29.81 in NW 7.4 mph 10.4 mph 70 % 0.00 in
08:09 28.7 °F 20.1 °F 29.81 in West 4.9 mph 10.4 mph 70 % 0.00 in
08:14 28.9 °F 20.0 °F 29.81 in WNW 4.4 mph 8.1 mph 69 % 0.00 in
08:19 29.1 °F 20.2 °F 29.81 in WNW 5.7 mph 12.0 mph 69 % 0.00 in
08:24 29.4 °F 20.5 °F 29.81 in WSW 7.5 mph 10.4 mph 69 % 0.00 in
08:29 29.7 °F 20.4 °F 29.81 in NW 7.6 mph 13.8 mph 68 % 0.00 in
08:34 30.0 °F 20.4 °F 29.81 in WNW 5.2 mph 9.2 mph 67 % 0.00 in
08:39 30.2 °F 20.6 °F 29.81 in WNW 5.2 mph 12.7 mph 67 % 0.00 in
08:45 30.4 °F 20.7 °F 29.82 in WNW 8.1 mph 13.0 mph 67 % 0.00 in
08:50 30.6 °F 20.2 °F 29.82 in West 5.6 mph 11.5 mph 65 % 0.00 in
08:55 30.9 °F 20.5 °F 29.82 in West 4.5 mph 9.2 mph 65 % 0.00 in
09:00 31.2 °F 20.8 °F 29.82 in West 3.5 mph 8.1 mph 65 % 0.00 in
09:05 31.6 °F 21.2 °F 29.82 in WSW 4.1 mph 8.0 mph 65 % 0.00 in
09:10 32.1 °F 21.3 °F 29.82 in NW 6.5 mph 9.2 mph 64 % 0.00 in
09:15 32.5 °F 21.3 °F 29.82 in NNW 3.4 mph 11.5 mph 63 % 0.00 in
09:20 32.8 °F 21.2 °F 29.82 in NW 7.9 mph 9.2 mph 62 % 0.00 in
09:25 32.9 °F 20.9 °F 29.82 in WNW 6.1 mph 10.4 mph 61 % 0.00 in
09:30 32.9 °F 20.9 °F 29.82 in WNW 6.2 mph 10.4 mph 61 % 0.00 in
09:35 33.0 °F 21.4 °F 29.82 in WNW 0.6 mph 3.5 mph 62 % 0.00 in
09:40 33.3 °F 21.3 °F 29.82 in NW 4.9 mph 6.0 mph 61 % 0.00 in
09:45 33.6 °F 21.6 °F 29.82 in NW 4.6 mph 11.5 mph 61 % 0.00 in
09:50 33.8 °F 21.4 °F 29.82 in WNW 4.6 mph 10.4 mph 60 % 0.00 in
09:55 34.0 °F 21.6 °F 29.82 in WNW 2.5 mph 4.6 mph 60 % 0.00 in
10:00 34.4 °F 21.5 °F 29.82 in NNW 3.0 mph 6.9 mph 59 % 0.00 in
10:05 34.6 °F 21.3 °F 29.82 in WNW 4.8 mph 9.0 mph 58 % 0.00 in
10:10 34.8 °F 21.5 °F 29.82 in WNW 6.8 mph 11.0 mph 58 % 0.00 in
10:15 35.2 °F 22.3 °F 29.82 in NNW 2.2 mph 3.5 mph 59 % 0.00 in
10:20 35.6 °F 22.3 °F 29.82 in WNW 7.2 mph 15.0 mph 58 % 0.00 in
10:25 35.9 °F 22.1 °F 29.82 in North 5.7 mph 10.4 mph 57 % 0.00 in
10:31 36.1 °F 21.9 °F 29.82 in North 5.1 mph 9.0 mph 56 % 0.00 in
10:36 36.2 °F 21.6 °F 29.82 in NW 3.9 mph 11.5 mph 55 % 0.00 in
10:41 36.4 °F 21.3 °F 29.82 in WNW 6.2 mph 11.5 mph 54 % 0.00 in
10:46 36.6 °F 21.5 °F 29.82 in WNW 4.6 mph 12.0 mph 54 % 0.00 in
10:51 36.9 °F 21.8 °F 29.81 in NW 3.6 mph 6.0 mph 54 % 0.00 in
10:56 37.3 °F 22.6 °F 29.81 in NW 3.3 mph 6.0 mph 55 % 0.00 in
11:01 37.8 °F 22.6 °F 29.81 in WNW 1.4 mph 3.5 mph 54 % 0.00 in
11:06 38.3 °F 22.2 °F 29.81 in NNW 6.5 mph 9.2 mph 52 % 0.00 in
11:11 38.4 °F 21.4 °F 29.81 in WSW 4.6 mph 10.4 mph 50 % 0.00 in
11:16 38.3 °F 21.7 °F 29.81 in NW 6.8 mph 11.5 mph 51 % 0.00 in
11:21 38.1 °F 21.5 °F 29.81 in NNW 3.7 mph 8.1 mph 51 % 0.00 in
11:26 38.4 °F 22.7 °F 29.81 in WNW 4.6 mph 6.9 mph 53 % 0.00 in
11:31 38.7 °F 21.6 °F 29.81 in NNW 2.9 mph 5.8 mph 50 % 0.00 in
11:36 38.8 °F 21.7 °F 29.80 in WNW 2.8 mph 9.2 mph 50 % 0.00 in
11:41 39.1 °F 22.0 °F 29.80 in NW 7.3 mph 9.2 mph 50 % 0.00 in
11:46 38.9 °F 22.3 °F 29.80 in WSW 5.7 mph 8.1 mph 51 % 0.00 in
11:51 38.6 °F 21.5 °F 29.80 in North 4.2 mph 10.4 mph 50 % 0.00 in
11:56 38.5 °F 22.4 °F 29.80 in NW 1.7 mph 8.1 mph 52 % 0.00 in
12:01 38.6 °F 22.5 °F 29.79 in WSW 7.6 mph 13.8 mph 52 % 0.00 in
12:06 38.4 °F 21.8 °F 29.79 in WSW 7.1 mph 11.5 mph 51 % 0.00 in
12:11 38.3 °F 22.2 °F 29.79 in NW 3.7 mph 8.1 mph 52 % 0.00 in
12:16 38.4 °F 22.3 °F 29.79 in West 6.0 mph 10.4 mph 52 % 0.00 in
12:21 38.5 °F 22.4 °F 29.79 in WNW 4.0 mph 8.1 mph 52 % 0.00 in
12:27 38.6 °F 22.0 °F 29.79 in WSW 4.4 mph 11.5 mph 51 % 0.00 in
12:32 38.8 °F 22.2 °F 29.79 in West 5.0 mph 9.2 mph 51 % 0.00 in
12:37 38.9 °F 21.8 °F 29.78 in WNW 5.9 mph 11.5 mph 50 % 0.00 in
12:42 39.1 °F 22.5 °F 29.78 in WNW 5.3 mph 11.5 mph 51 % 0.00 in
12:47 39.1 °F 22.0 °F 29.78 in West 3.8 mph 8.1 mph 50 % 0.00 in
12:52 39.2 °F 21.6 °F 29.78 in SW 8.1 mph 12.0 mph 49 % 0.00 in
12:57 39.2 °F 21.6 °F 29.78 in NW 6.2 mph 10.4 mph 49 % 0.00 in
13:02 39.3 °F 22.2 °F 29.78 in West 4.1 mph 5.8 mph 50 % 0.00 in
13:07 39.5 °F 21.9 °F 29.78 in West 6.8 mph 7.0 mph 49 % 0.00 in
13:12 39.8 °F 22.2 °F 29.77 in West 5.8 mph 10.4 mph 49 % 0.00 in
13:17 40.0 °F 21.9 °F 29.77 in WSW 8.3 mph 11.5 mph 48 % 0.00 in
13:22 40.1 °F 22.9 °F 29.78 in WSW 4.0 mph 11.5 mph 50 % 0.00 in
13:27 40.2 °F 22.5 °F 29.77 in NW 4.5 mph 11.5 mph 49 % 0.00 in
13:32 40.2 °F 22.5 °F 29.77 in West 5.9 mph 11.5 mph 49 % 0.00 in
13:38 40.4 °F 22.2 °F 29.77 in West 7.3 mph 11.5 mph 48 % 0.00 in
13:43 40.6 °F 21.9 °F 29.77 in WNW 5.7 mph 11.5 mph 47 % 0.00 in
13:48 40.6 °F 22.4 °F 29.77 in West 3.0 mph 8.0 mph 48 % 0.00 in
13:53 40.5 °F 21.3 °F 29.76 in West 6.2 mph 10.4 mph 46 % 0.00 in
13:58 40.3 °F 21.6 °F 29.76 in WNW 4.7 mph 11.5 mph 47 % 0.00 in
14:03 40.4 °F 22.2 °F 29.76 in WNW 4.4 mph 8.1 mph 48 % 0.00 in
14:08 40.5 °F 22.8 °F 29.76 in WSW 3.1 mph 6.9 mph 49 % 0.00 in
14:13 40.6 °F 22.4 °F 29.76 in West 4.9 mph 6.9 mph 48 % 0.00 in
14:18 40.7 °F 22.0 °F 29.76 in WSW 2.5 mph 5.8 mph 47 % 0.00 in
14:23 40.7 °F 22.0 °F 29.75 in SW 4.0 mph 7.0 mph 47 % 0.00 in
14:28 40.6 °F 21.9 °F 29.76 in WNW 8.3 mph 10.4 mph 47 % 0.00 in
14:33 40.4 °F 21.7 °F 29.76 in WSW 5.2 mph 11.5 mph 47 % 0.00 in
14:38 40.2 °F 21.6 °F 29.76 in WSW 7.7 mph 11.5 mph 47 % 0.00 in
14:43 40.1 °F 21.5 °F 29.76 in West 7.0 mph 13.0 mph 47 % 0.00 in
14:48 40.0 °F 21.4 °F 29.76 in WSW 8.3 mph 12.7 mph 47 % 0.00 in
14:53 39.8 °F 21.2 °F 29.76 in West 5.0 mph 13.0 mph 47 % 0.00 in
14:58 39.7 °F 22.1 °F 29.76 in NW 7.0 mph 12.7 mph 49 % 0.00 in
15:03 39.5 °F 21.4 °F 29.76 in West 5.0 mph 13.0 mph 48 % 0.00 in
15:08 39.4 °F 21.8 °F 29.76 in WSW 7.0 mph 13.0 mph 49 % 0.00 in
15:13 39.4 °F 21.8 °F 29.77 in West 8.0 mph 15.0 mph 49 % 0.00 in
15:18 39.4 °F 21.8 °F 29.77 in WNW 8.0 mph 16.0 mph 49 % 0.00 in
15:23 39.5 °F 21.9 °F 29.77 in West 7.8 mph 13.8 mph 49 % 0.00 in
15:28 39.4 °F 21.8 °F 29.77 in NW 6.1 mph 10.4 mph 49 % 0.00 in
15:33 39.4 °F 22.3 °F 29.77 in WSW 3.3 mph 7.0 mph 50 % 0.00 in
15:38 39.3 °F 22.2 °F 29.76 in WSW 6.8 mph 11.5 mph 50 % 0.00 in
15:44 39.4 °F 22.3 °F 29.76 in NW 6.2 mph 8.1 mph 50 % 0.00 in
15:49 39.4 °F 21.8 °F 29.76 in WNW 3.6 mph 9.2 mph 49 % 0.00 in
15:54 39.4 °F 21.8 °F 29.76 in WNW 5.5 mph 11.5 mph 49 % 0.00 in
15:59 39.4 °F 22.3 °F 29.77 in West 3.4 mph 10.0 mph 50 % 0.00 in
16:04 39.5 °F 22.4 °F 29.77 in WNW 6.4 mph 11.5 mph 50 % 0.00 in
16:09 39.5 °F 21.9 °F 29.76 in West 3.7 mph 7.0 mph 49 % 0.00 in
16:14 39.5 °F 22.4 °F 29.76 in WSW 3.9 mph 6.9 mph 50 % 0.00 in
16:19 39.4 °F 22.3 °F 29.77 in West 3.3 mph 5.8 mph 50 % 0.00 in
16:24 39.4 °F 22.3 °F 29.77 in West 5.2 mph 5.2 mph 50 % 0.00 in
16:29 39.3 °F 22.7 °F 29.77 in WNW 6.7 mph 11.5 mph 51 % 0.00 in
16:34 39.2 °F 22.1 °F 29.77 in WNW 3.2 mph 9.2 mph 50 % 0.00 in
16:39 39.1 °F 22.5 °F 29.77 in West 3.2 mph 6.9 mph 51 % 0.00 in
16:44 39.0 °F 22.8 °F 29.77 in West 3.8 mph 4.6 mph 52 % 0.00 in
16:49 38.9 °F 22.8 °F 29.78 in West 6.7 mph 10.4 mph 52 % 0.00 in
16:54 38.8 °F 22.7 °F 29.78 in WNW 5.4 mph 10.4 mph 52 % 0.00 in
17:00 38.7 °F 22.6 °F 29.78 in NW 3.5 mph 10.4 mph 52 % 0.00 in
17:05 38.7 °F 22.6 °F 29.78 in West 3.5 mph 9.0 mph 52 % 0.00 in
17:10 38.6 °F 22.5 °F 29.78 in NW 2.8 mph 4.6 mph 52 % 0.00 in
17:15 38.6 °F 22.5 °F 29.79 in NW 2.8 mph 6.9 mph 52 % 0.00 in
17:20 38.5 °F 22.8 °F 29.79 in West 5.3 mph 8.0 mph 53 % 0.00 in
17:25 38.4 °F 22.7 °F 29.79 in West 4.3 mph 6.9 mph 53 % 0.00 in
17:30 38.3 °F 22.6 °F 29.79 in West 1.9 mph 3.5 mph 53 % 0.00 in
17:35 38.2 °F 23.0 °F 29.80 in WNW 2.8 mph 8.1 mph 54 % 0.00 in
17:40 38.1 °F 23.3 °F 29.80 in WNW 2.9 mph 5.8 mph 55 % 0.00 in
17:45 38.0 °F 22.8 °F 29.80 in West 2.0 mph 6.9 mph 54 % 0.00 in
17:50 38.0 °F 23.3 °F 29.81 in NW 3.5 mph 6.9 mph 55 % 0.00 in
17:55 37.9 °F 22.7 °F 29.80 in WNW 2.5 mph 9.2 mph 54 % 0.00 in
18:01 37.9 °F 22.7 °F 29.81 in WNW 3.9 mph 8.1 mph 54 % 0.00 in
18:06 37.9 °F 23.2 °F 29.81 in WNW 3.4 mph 4.6 mph 55 % 0.00 in
18:11 37.9 °F 23.2 °F 29.81 in West 2.6 mph 5.8 mph 55 % 0.00 in
18:16 37.9 °F 23.6 °F 29.81 in WNW 4.5 mph 4.6 mph 56 % 0.00 in
18:21 37.9 °F 23.6 °F 29.80 in West 3.7 mph 6.0 mph 56 % 0.00 in
18:26 37.9 °F 23.2 °F 29.80 in West 3.5 mph 5.8 mph 55 % 0.00 in
18:31 37.9 °F 23.2 °F 29.81 in WNW 3.3 mph 6.0 mph 55 % 0.00 in
18:36 37.9 °F 23.2 °F 29.81 in West 3.0 mph 4.0 mph 55 % 0.00 in
18:41 37.9 °F 22.7 °F 29.82 in West 1.0 mph 3.5 mph 54 % 0.00 in
18:46 37.9 °F 23.2 °F 29.82 in West 3.2 mph 6.9 mph 55 % 0.00 in
18:51 37.9 °F 23.6 °F 29.82 in West 4.0 mph 6.9 mph 56 % 0.00 in
18:56 37.9 °F 23.6 °F 29.82 in WNW 1.8 mph 4.6 mph 56 % 0.00 in
19:01 37.9 °F 23.6 °F 29.82 in WNW 1.8 mph 4.6 mph 56 % 0.00 in
19:06 37.9 °F 23.6 °F 29.82 in WNW 3.5 mph 9.2 mph 56 % 0.00 in
19:11 37.9 °F 24.0 °F 29.83 in West 3.1 mph 4.6 mph 57 % 0.00 in
19:16 37.9 °F 23.6 °F 29.83 in WNW 2.6 mph 6.9 mph 56 % 0.00 in
19:21 37.9 °F 23.2 °F 29.83 in WSW 2.3 mph 4.6 mph 55 % 0.00 in
19:26 37.9 °F 23.2 °F 29.83 in West 1.7 mph 3.5 mph 55 % 0.00 in
19:32 37.8 °F 23.1 °F 29.83 in WNW 1.8 mph 4.6 mph 55 % 0.00 in
19:37 37.9 °F 23.6 °F 29.83 in West 0.4 mph 3.0 mph 56 % 0.00 in
19:42 37.9 °F 24.0 °F 29.83 in WSW 1.9 mph 3.5 mph 57 % 0.00 in
19:47 37.8 °F 24.7 °F 29.83 in West 2.2 mph 4.0 mph 59 % 0.00 in
19:52 37.7 °F 24.6 °F 29.83 in West 2.7 mph 3.5 mph 59 % 0.00 in
19:57 37.7 °F 24.6 °F 29.83 in West 4.4 mph 6.9 mph 59 % 0.00 in
20:02 37.6 °F 24.1 °F 29.83 in WSW 1.6 mph 3.5 mph 58 % 0.00 in
20:07 37.5 °F 24.1 °F 29.83 in West 1.2 mph 3.5 mph 58 % 0.00 in
20:12 37.5 °F 24.1 °F 29.83 in West 3.3 mph 4.6 mph 58 % 0.00 in
20:17 37.4 °F 24.0 °F 29.83 in WSW 2.5 mph 3.5 mph 58 % 0.00 in
20:22 37.3 °F 23.9 °F 29.84 in West 1.7 mph 3.5 mph 58 % 0.00 in
20:27 37.3 °F 24.3 °F 29.84 in WSW 3.6 mph 6.9 mph 59 % 0.00 in
20:32 37.2 °F 24.2 °F 29.84 in SW 3.4 mph 4.6 mph 59 % 0.00 in
20:38 37.3 °F 24.3 °F 29.84 in West 2.6 mph 7.0 mph 59 % 0.00 in
20:43 37.2 °F 23.8 °F 29.84 in WSW 4.3 mph 5.8 mph 58 % 0.00 in
20:48 37.2 °F 23.8 °F 29.84 in West 4.4 mph 8.1 mph 58 % 0.00 in
20:53 37.2 °F 23.8 °F 29.84 in WSW 0.9 mph 2.3 mph 58 % 0.00 in
20:58 37.1 °F 23.7 °F 29.84 in SW 2.3 mph 4.6 mph 58 % 0.00 in
21:03 37.2 °F 23.8 °F 29.85 in WNW 1.1 mph 2.3 mph 58 % 0.00 in
21:08 37.2 °F 23.8 °F 29.85 in WSW 1.4 mph 3.5 mph 58 % 0.00 in
21:13 37.1 °F 24.1 °F 29.85 in WSW 1.6 mph 3.5 mph 59 % 0.00 in
21:18 37.1 °F 24.1 °F 29.85 in WSW 3.3 mph 5.0 mph 59 % 0.00 in
21:23 37.1 °F 24.5 °F 29.85 in West 3.2 mph 3.5 mph 60 % 0.00 in
21:28 37.1 °F 24.1 °F 29.85 in West 2.9 mph 4.6 mph 59 % 0.00 in
21:33 37.1 °F 24.1 °F 29.86 in WSW 2.4 mph 4.6 mph 59 % 0.00 in
21:38 37.1 °F 24.5 °F 29.86 in WSW 2.0 mph 7.0 mph 60 % 0.00 in
21:43 37.0 °F 24.8 °F 29.86 in WSW 2.0 mph 7.0 mph 61 % 0.00 in
21:48 37.0 °F 24.8 °F 29.86 in WSW 3.0 mph 5.0 mph 61 % 0.00 in
21:53 37.0 °F 25.2 °F 29.86 in WSW 2.0 mph 9.0 mph 62 % 0.00 in
21:58 36.9 °F 25.1 °F 29.85 in WSW 3.1 mph 5.0 mph 62 % 0.00 in
22:03 36.8 °F 25.0 °F 29.86 in WSW 2.5 mph 5.8 mph 62 % 0.00 in
22:08 36.8 °F 24.6 °F 29.86 in WSW 3.4 mph 9.2 mph 61 % 0.00 in
22:13 36.7 °F 24.1 °F 29.85 in West 2.3 mph 3.5 mph 60 % 0.00 in
22:18 36.6 °F 24.0 °F 29.86 in WSW 1.6 mph 3.5 mph 60 % 0.00 in
22:24 36.6 °F 23.6 °F 29.86 in WNW 1.3 mph 2.3 mph 59 % 0.00 in
22:29 36.6 °F 23.6 °F 29.86 in WSW 3.0 mph 5.8 mph 59 % 0.00 in
22:34 36.5 °F 23.5 °F 29.86 in West 1.6 mph 3.5 mph 59 % 0.00 in
22:39 36.5 °F 23.5 °F 29.86 in West 2.5 mph 3.5 mph 59 % 0.00 in
22:44 36.4 °F 23.4 °F 29.86 in SW 2.9 mph 4.6 mph 59 % 0.00 in
22:49 36.3 °F 23.7 °F 29.86 in WSW 0.6 mph 2.3 mph 60 % 0.00 in
22:54 36.2 °F 23.6 °F 29.86 in WSW 0.6 mph 5.0 mph 60 % 0.00 in
22:59 36.1 °F 23.5 °F 29.86 in WSW 1.4 mph 3.5 mph 60 % 0.00 in
23:04 36.0 °F 23.0 °F 29.86 in WSW 2.5 mph 4.0 mph 59 % 0.00 in
23:09 35.9 °F 23.0 °F 29.86 in SW 2.9 mph 6.0 mph 59 % 0.00 in
23:14 35.8 °F 22.9 °F 29.86 in WSW 1.0 mph 4.6 mph 59 % 0.00 in
23:19 35.7 °F 23.6 °F 29.86 in WSW 0.3 mph 1.2 mph 61 % 0.00 in
23:24 35.6 °F 23.5 °F 29.86 in WSW 2.6 mph 3.5 mph 61 % 0.00 in
23:29 35.5 °F 23.4 °F 29.86 in WSW 0.2 mph 1.2 mph 61 % 0.00 in
23:34 35.5 °F 23.4 °F 29.86 in WSW 0.2 mph 1.2 mph 61 % 0.00 in
23:39 35.3 °F 23.2 °F 29.86 in WSW 0.8 mph 3.5 mph 61 % 0.00 in
23:45 35.1 °F 23.4 °F 29.86 in Calm     62 % 0.00 in
23:50 34.8 °F 23.1 °F 29.88 in WSW 0.3 mph 1.2 mph 62 % 0.00 in
23:55 34.5 °F 23.2 °F 29.87 in Calm     63 % 0.00 in
Crab Meadow Weather
Compliments of Weather Underground - 3 mb

Script developed by  Jim McMurry - jmcmurry@mwt.net Adapted for the template by  Wim van der Kuil - Leuven-Template.eu

Astronomy: The Sun is around 4.5 billion years old.